Temperature
15 15 14 14 14 14 14 13 13 13 13 13 13 13 13 13 13 13 13 13 12 12 12 12 12 12 12 12 12 11 11 11 11 11 10 10 10 10 10 10 10 10 10
15 14 14 14 14 14 13 13 13 13 13 13 13 13 13 12 12 12 12 12 12 12 12 12 12 12 12 11 11 11 11 11 11 11 10 10 10 10 10 10 10 10 10
14 14 14 14 13 13 13 13 13 13 13 13 12 12 12 12 12 12 12 12 12 12 12 12 12 11 11 11 11 11 11 10 10 10 10 10 9 9 9 9 9 9 9
14 14 14 13 13 13 13 13 12 12 12 12 12 12 12 12 12 12 12 12 12 11 11 11 11 11 11 11 11 11 10 10 10 10 10 9 9 9 9 9 9 9 9
14 13 13 13 13 13 12 12 12 12 12 12 12 11 11 11 11 11 11 11 11 11 11 11 11 11 11 11 10 10 10 10 10 9 9 9 9 9 9 9 9 8 9
14 13 13 13 12 12 12 12 12 12 12 11 11 11 11 11 11 11 11 11 11 11 11 11 10 10 10 10 10 10 10 10 10 9 9 9 9 9 9 8 8 8 8
13 13 13 12 12 12 12 12 11 11 11 11 11 11 11 11 10 10 10 10 10 10 10 10 10 10 10 10 10 10 10 9 9 9 9 9 9 9 9 8 8 8 8
13 13 12 12 12 12 11 11 11 11 11 11 11 11 10 10 10 10 10 10 10 10 10 10 10 10 10 10 10 10 9 9 9 9 9 9 9 8 8 8 8 8 8
13 12 12 12 12 11 11 11 11 11 11 10 10 10 10 10 10 10 10 10 10 10 10 9 9 9 9 9 9 9 9 9 9 9 9 8 8 8 8 8 8 8 8
12 12 12 12 11 11 11 11 10 10 10 10 10 10 10 10 10 10 9 9 9 9 9 9 9 9 9 9 9 9 9 9 9 8 8 8 8 8 8 8 7 7 7
12 12 12 11 11 11 11 10 10 10 10 10 9 9 9 9 9 9 9 9 9 9 9 9 9 9 9 9 8 8 8 8 8 8 8 8 8 8 7 7 7 7 7
12 12 11 11 11 10 10 10 10 10 9 9 9 9 9 9 9 9 9 9 9 9 8 8 8 8 8 8 8 8 8 8 8 8 8 7 7 7 7 7 7 7 7
11 11 11 11 10 10 10 10 10 9 9 9 9 9 8 8 8 8 8 8 8 8 8 8 8 8 8 8 8 8 8 7 7 7 7 7 7 7 7 7 7 7 7
11 11 11 10 10 10 10 9 9 9 9 9 8 8 8 8 8 8 8 8 8 8 8 8 7 7 7 7 7 7 7 7 7 7 7 7 7 7 7 7 7 7 7
11 10 10 10 10 9 9 9 9 8 8 8 8 8 8 8 8 8 8 8 7 7 7 7 7 7 7 7 7 7 7 7 7 7 7 7 6 6 6 6 6 6 6
10 10 10 9 9 9 9 8 8 8 8 8 8 7 7 7 7 7 7 7 7 7 7 7 7 6 6 6 6 6 6 6 6 6 6 6 6 6 6 6 5 5 5
10 9 9 9 9 9 8 8 8 8 7 7 7 7 7 7 7 7 7 7 7 7 7 6 6 6 6 6 6 6 6 6 6 6 6 6 6 5 5 5 5 5 5
9 9 9 9 8 8 8 8 7 7 7 7 7 7 7 7 7 7 7 6 6 6 6 6 6 6 6 6 6 5 5 5 5 5 5 5 5 5 5 5 5 5 5
9 9 8 8 8 8 7 7 7 7 7 7 6 6 6 6 6 6 6 6 6 6 6 6 6 5 5 5 5 5 5 5 5 5 5 5 5 5 5 4 4 4 4
8 8 8 8 7 7 7 7 7 7 6 6 6 6 6 6 6 6 6 6 6 6 6 5 5 5 5 5 5 5 5 5 5 5 4 5 5 5 4 4 4 4 4
8 7 7 7 7 7 6 6 6 6 6 6 6 6 6 5 5 5 5 5 5 5 5 5 5 5 5 5 5 5 5 5 4 4 4 4 4 4 4 4 4 4 4
7 7 7 7 6 6 6 6 6 6 6 6 6 6 5 5 5 5 5 5 5 5 5 5 5 5 4 4 4 4 4 4 4 4 4 4 4 4 4 4 4 4 4
7 7 6 6 6 6 6 6 6 6 5 5 5 5 5 5 5 5 4 4 4 4 4 4 4 4 4 4 4 4 4 4 4 4 4 4 4 4 4 4 4 3 3
6 6 6 6 6 6 6 6 5 5 5 5 5 5 5 5 4 4 4 4 4 4 4 4 4 4 4 4 4 4 4 4 4 4 4 4 4 4 4 4 3 3 3
6 6 6 5 5 5 5 5 5 5 5 5 4 4 4 4 4 4 4 3 3 3 3 3 3 3 3 3 3 3 4 4 4 4 4 4 3 3 3 3 3 3 3
5 5 5 5 5 5 5 5 5 4 4 4 4 4 4 4 4 4 3 3 3 3 3 3 3 3 3 3 3 3 3 3 3 3 3 3 3 3 3 3 3 3 3
Wind_Speed
3 3 3 2 2 2 2 1 1 1 1 1 2 2 2 2 2 2 2 2 2 1 1 1 1 1 1 1 1 2 2 3 2 2 1 1 1 1 1 1 2 2 2
3 3 3 2 2 2 2 1 1 1 1 1 2 2 2 1 2 2 2 2 3 2 2 2 2 1 1 1 1 2 2 2 3 2 1 1 1 1 1 1 2 2 2
3 3 3 2 2 2 2 1 1 1 1 1 1 2 2 2 2 2 2 2 3 3 3 3 3 2 2 1 2 2 2 2 2 2 1 1 1 1 1 1 2 2 2
4 4 3 2 2 2 2 1 1 2 2 1 1 1 1 1 1 1 2 2 2 2 2 3 3 3 3 3 2 2 2 2 2 2 1 1 0 1 1 0 2 2 2
4 4 3 2 2 2 2 1 1 1 2 2 1 1 0 1 1 1 1 2 2 1 1 2 2 2 3 3 3 3 3 3 2 2 2 1 1 1 1 1 1 2 2
4 3 3 2 2 2 2 1 1 1 1 1 1 1 0 1 0 1 2 1 1 1 1 1 1 1 3 4 4 4 5 4 4 3 2 3 3 3 2 1 1 1 2
3 3 3 3 2 2 2 2 1 1 1 1 1 1 1 1 0 0 1 2 1 1 1 1 1 1 1 2 3 3 4 5 5 5 4 4 4 4 3 2 2 2 3
4 3 3 2 2 2 2 2 2 1 1 1 1 2 1 1 0 0 1 1 1 1 1 2 2 2 2 2 2 1 1 3 4 3 4 5 4 4 5 4 3 2 2
3 3 3 3 3 3 3 3 2 1 1 1 1 2 2 2 1 0 1 1 1 0 1 1 1 2 1 2 3 2 1 2 2 3 3 4 4 4 3 2 1 1 2
4 4 4 3 3 3 3 2 1 1 1 1 1 1 2 2 2 1 2 1 1 0 1 1 1 1 1 1 3 3 2 2 1 1 1 2 1 2 3 3 4 2 2
4 3 3 3 3 3 3 2 2 1 1 1 1 1 1 2 2 1 2 2 2 1 1 1 2 2 1 1 2 3 4 2 2 1 0 1 1 1 2 2 3 4 3
3 3 3 3 3 2 2 2 2 2 1 0 0 1 1 2 1 1 1 2 3 2 2 1 2 2 1 1 1 2 2 1 1 1 0 1 1 2 2 3 3 3 4
3 3 2 2 2 2 3 2 2 2 1 1 1 1 2 2 2 1 1 2 2 1 1 1 2 2 1 1 2 1 0 1 1 1 2 3 3 3 2 1 2 2 2
3 3 3 3 2 1 2 2 2 2 2 2 2 2 2 2 2 2 1 1 1 1 1 2 2 2 1 1 1 1 1 2 2 3 3 3 2 1 1 1 2 1 2
3 3 3 3 3 2 1 1 2 3 4 4 3 3 3 3 4 4 3 2 2 2 1 0 1 1 1 1 1 1 1 1 1 2 2 2 2 2 2 2 1 1 2
3 3 3 3 2 2 2 0 1 1 3 4 4 3 3 4 3 3 3 2 2 3 1 1 1 1 2 2 2 2 1 2 2 2 2 2 3 3 3 2 2 2 3
4 3 3 3 3 3 2 2 1 2 2 2 2 2 3 3 3 3 3 1 1 2 1 2 2 3 2 2 2 2 3 3 2 2 3 3 3 3 3 3 3 3 3
3 3 3 3 4 3 3 3 2 2 1 2 3 3 3 2 2 3 2 1 0 0 1 2 3 3 3 3 3 3 3 3 2 3 3 3 3 3 3 3 3 4 4
3 3 3 3 3 3 3 2 2 2 2 1 1 2 3 2 1 1 2 1 2 3 3 3 3 3 3 3 3 3 3 3 3 3 3 4 4 4 4 4 4 5 4
3 3 2 2 2 2 2 2 2 2 2 2 2 2 1 1 1 1 1 1 2 3 3 4 4 4 4 3 3 3 3 3 4 4 4 4 4 4 5 5 5 4 5
2 3 3 2 3 3 3 3 3 3 3 3 3 3 2 1 2 2 2 2 2 3 3 3 3 4 4 3 3 4 4 4 4 4 4 4 4 4 4 4 5 5 5
3 3 3 3 3 3 3 3 3 3 3 3 2 2 2 1 1 2 2 3 3 3 3 3 3 3 3 4 4 4 4 4 4 4 4 4 4 4 4 4 4 4 4
3 3 2 3 3 4 3 3 3 3 3 3 3 2 2 2 2 3 3 3 2 2 2 2 3 3 3 3 4 4 5 5 5 5 5 5 4 4 4 5 5 5 5
3 3 3 3 3 3 3 3 3 4 4 3 3 3 3 3 3 3 3 3 2 2 2 2 3 4 4 3 3 4 4 5 5 4 5 5 5 5 4 4 5 6 6
3 3 3 3 3 3 4 4 4 4 4 4 4 3 3 3 3 3 3 3 3 3 3 3 3 4 5 5 4 4 5 6 6 5 4 4 5 5 5 5 5 5 5
3 3 3 3 3 3 4 4 4 4 4 4 4 3 3 3 3 3 2 3 3 3 3 3 4 5 5 5 6 6 7 7 7 7 4 3 4 5 5 4 5 4 5
Wind_Direction
151 149 145 157 154 143 146 176 186 199 190 159 161 155 156 165 163 156 164 153 156 172 159 154 187 178 158 155 154 149 142 140 168 257 258 259 226 233 331 305 314 311 296
154 145 147 147 145 141 152 175 161 168 190 175 155 158 163 171 173 173 187 177 177 194 214 196 216 185 173 180 162 161 164 156 155 200 260 271 268 255 275 295 323 313 297
141 134 132 141 148 154 168 169 140 126 126 120 123 147 175 189 194 197 191 191 197 209 210 206 209 181 198 208 183 172 171 150 136 156 211 255 297 333 11 336 330 325 311
148 142 139 164 177 174 170 164 152 136 127 128 133 155 178 188 189 202 193 190 208 223 220 214 210 199 204 206 197 186 159 139 133 143 164 224 262 317 70 332 329 323 309
149 148 161 174 171 148 141 155 152 152 150 152 141 137 153 192 192 178 184 178 180 219 251 232 227 221 213 201 193 179 165 157 155 162 180 192 227 219 224 220 257 301 304
154 164 163 144 141 157 165 163 153 157 153 137 151 160 198 274 43 137 156 161 161 181 239 260 244 232 232 227 216 192 181 175 179 182 205 213 227 220 202 212 209 265 285
154 165 170 162 159 179 176 157 170 189 154 148 182 170 201 269 247 122 139 150 157 191 208 228 256 264 211 206 216 208 210 206 192 188 200 216 218 214 188 198 217 225 244
162 176 182 175 179 185 166 180 203 208 191 194 199 206 209 267 303 109 125 131 143 201 227 219 217 240 210 171 168 166 214 233 222 209 209 220 221 209 198 203 210 223 281
177 194 195 183 181 183 183 192 200 192 211 213 204 199 210 264 284 201 139 129 116 295 299 249 209 216 255 165 151 175 221 271 265 242 249 249 243 227 185 134 135 141 274
206 207 202 187 182 192 193 189 201 186 201 205 215 215 215 250 272 232 153 135 135 304 325 304 281 255 255 161 171 177 210 252 265 350 336 312 283 238 214 196 192 197 229
208 191 187 186 183 186 182 172 168 165 168 207 230 257 243 251 262 220 158 155 178 199 250 292 295 295 275 212 185 195 222 211 181 179 219 323 325 267 242 235 211 203 213
178 172 177 182 189 182 165 173 171 165 159 197 239 288 285 272 263 236 160 152 161 177 214 244 277 304 290 279 237 263 256 137 131 134 164 248 260 260 259 247 242 237 234
164 177 186 184 193 178 172 175 170 169 174 205 214 243 266 268 273 260 213 211 203 202 228 249 289 303 284 277 288 288 131 146 155 179 223 242 244 248 254 271 277 276 283
171 185 185 180 183 174 171 172 174 188 197 206 217 235 256 257 256 259 242 235 232 256 289 300 305 306 294 294 320 296 234 198 193 215 236 249 256 259 253 243 256 263 272
178 188 189 186 183 177 179 190 193 206 206 206 219 218 221 241 241 225 206 211 208 216 224 341 2 347 325 316 304 280 242 227 232 242 239 250 258 256 265 260 245 245 246
184 196 191 181 186 181 178 273 278 242 236 220 214 213 236 236 225 217 220 215 213 197 166 225 252 254 250 253 254 272 259 246 248 246 243 239 244 247 256 266 250 238 252
192 199 196 189 193 194 192 201 258 332 335 277 258 248 252 252 228 221 221 221 226 177 184 233 243 245 248 247 243 243 253 255 244 240 245 248 249 251 250 251 250 251 252
191 202 200 198 200 204 207 210 210 215 269 316 310 286 279 270 249 229 211 131 311 244 227 233 240 243 243 242 243 243 249 251 244 245 251 252 247 246 250 251 249 245 249
190 200 200 200 202 205 206 204 208 216 219 254 313 322 304 286 300 264 182 192 221 239 241 241 242 243 242 241 244 247 245 243 242 240 246 250 248 244 247 248 247 255 250
204 215 201 198 198 201 202 201 206 211 209 226 245 266 306 2 336 302 274 253 239 244 238 238 243 243 240 240 243 247 250 250 248 243 249 250 249 245 245 245 244 249 248
203 212 206 204 205 205 203 206 210 209 207 220 241 248 219 215 240 256 265 265 258 255 250 244 242 243 244 241 238 242 245 250 250 252 253 252 249 251 252 249 247 244 248
199 206 207 215 217 211 210 212 213 211 213 221 243 257 236 233 244 254 259 261 263 259 255 245 241 243 240 238 237 242 248 252 253 252 253 254 254 252 251 252 253 252 251
197 206 214 219 218 215 214 213 214 209 215 221 220 224 234 242 246 249 254 259 258 264 260 248 247 255 255 245 237 231 237 247 250 248 248 252 255 254 252 253 255 256 248
201 207 212 217 218 215 214 216 216 213 214 218 223 226 231 239 249 254 252 254 250 246 237 236 247 255 260 258 249 248 249 255 256 248 240 244 251 256 256 257 255 255 251
199 208 215 219 221 220 221 223 223 218 216 220 226 231 234 240 250 254 251 245 244 244 246 241 245 251 255 258 257 259 271 271 273 270 252 240 249 253 255 257 258 258 254
204 209 216 222 223 222 223 227 228 222 220 224 226 228 231 237 244 247 248 244 243 246 252 249 257 260 261 259 263 268 272 276 275 276 268 250 244 250 255 254 257 256 253
Height
1517 1518 1518 1518 1518 1518 1518 1518 1518 1519 1518 1518 1518 1518 1518 1518 1519 1519 1519 1519 1520 1520 1520 1520 1521 1521 1521 1521 1521 1521 1521 1521 1521 1521 1521 1521 1521 1521 1521 1520 1520 1519 1518
1516 1516 1516 1516 1516 1517 1517 1517 1517 1517 1517 1517 1517 1516 1516 1516 1517 1517 1517 1517 1517 1518 1518 1518 1518 1519 1519 1519 1519 1519 1519 1519 1519 1519 1519 1519 1519 1519 1519 1518 1518 1517 1517
1514 1514 1514 1515 1515 1515 1515 1515 1515 1515 1515 1515 1515 1514 1514 1514 1515 1515 1515 1515 1515 1515 1516 1516 1516 1516 1516 1516 1516 1517 1517 1517 1517 1517 1517 1517 1517 1517 1517 1517 1516 1516 1515
1513 1513 1513 1513 1513 1513 1513 1513 1514 1513 1513 1513 1513 1513 1513 1512 1512 1512 1513 1513 1513 1513 1513 1513 1514 1514 1514 1514 1514 1514 1515 1515 1515 1515 1515 1515 1515 1515 1515 1514 1514 1514 1513
1511 1510 1511 1511 1511 1511 1511 1512 1512 1512 1511 1511 1511 1511 1511 1510 1510 1510 1510 1510 1510 1510 1510 1511 1511 1511 1511 1512 1512 1512 1512 1512 1512 1513 1512 1512 1512 1512 1512 1512 1512 1511 1511
1508 1508 1509 1509 1509 1509 1509 1509 1509 1509 1509 1509 1509 1509 1508 1508 1508 1508 1508 1508 1508 1508 1508 1508 1508 1508 1508 1509 1509 1509 1510 1510 1510 1510 1510 1510 1510 1510 1510 1510 1510 1509 1508
1506 1506 1506 1506 1507 1507 1507 1507 1507 1507 1507 1507 1507 1507 1506 1506 1506 1506 1506 1506 1505 1505 1505 1505 1505 1505 1505 1505 1506 1506 1507 1507 1508 1508 1508 1508 1508 1508 1508 1507 1507 1507 1506
1504 1504 1504 1504 1504 1504 1504 1504 1505 1505 1505 1505 1504 1504 1504 1504 1504 1504 1504 1503 1503 1503 1503 1503 1503 1502 1502 1503 1503 1503 1504 1504 1505 1505 1505 1505 1506 1506 1505 1505 1505 1504 1504
1501 1501 1501 1501 1501 1501 1501 1501 1502 1502 1502 1502 1502 1501 1501 1501 1502 1501 1501 1501 1500 1500 1500 1500 1500 1500 1500 1500 1500 1500 1501 1501 1502 1502 1503 1503 1503 1503 1503 1502 1501 1501 1500
1498 1498 1499 1498 1498 1498 1498 1499 1499 1499 1499 1499 1499 1499 1499 1499 1499 1499 1499 1498 1497 1497 1497 1497 1498 1497 1497 1497 1497 1497 1497 1498 1498 1498 1499 1499 1499 1499 1499 1499 1499 1498 1497
1496 1496 1496 1496 1496 1496 1496 1496 1496 1496 1496 1496 1496 1496 1496 1496 1496 1496 1496 1495 1495 1495 1494 1494 1495 1495 1495 1495 1495 1495 1495 1495 1495 1495 1495 1495 1495 1495 1495 1495 1495 1495 1495
1493 1493 1493 1493 1493 1493 1493 1493 1494 1493 1493 1493 1493 1493 1493 1493 1493 1493 1493 1493 1493 1492 1492 1492 1492 1492 1492 1492 1492 1492 1492 1492 1492 1492 1492 1491 1491 1491 1492 1492 1492 1491 1491
1490 1490 1490 1490 1490 1490 1490 1490 1490 1490 1490 1490 1490 1490 1490 1490 1490 1490 1490 1490 1490 1490 1489 1489 1490 1489 1489 1489 1489 1489 1489 1489 1489 1488 1488 1488 1488 1488 1488 1488 1488 1487 1487
1487 1487 1487 1487 1487 1487 1488 1488 1487 1487 1487 1487 1487 1486 1486 1486 1486 1487 1487 1487 1487 1487 1486 1486 1486 1486 1486 1486 1486 1486 1486 1485 1485 1485 1485 1485 1485 1484 1484 1484 1483 1483 1482
1483 1483 1484 1484 1484 1484 1485 1485 1485 1485 1485 1485 1484 1484 1483 1482 1483 1483 1483 1483 1483 1483 1483 1483 1482 1482 1482 1482 1482 1482 1482 1482 1481 1481 1481 1480 1480 1480 1480 1479 1479 1478 1478
1480 1480 1480 1480 1481 1481 1481 1482 1482 1482 1482 1482 1481 1481 1480 1480 1480 1480 1480 1480 1480 1480 1480 1479 1478 1478 1478 1478 1478 1477 1477 1477 1477 1477 1477 1476 1476 1475 1475 1475 1475 1474 1474
1476 1476 1477 1477 1477 1477 1477 1477 1477 1478 1478 1478 1478 1477 1477 1476 1476 1476 1476 1476 1476 1476 1475 1474 1474 1474 1474 1474 1474 1474 1474 1474 1473 1473 1473 1472 1472 1471 1471 1471 1471 1470 1470
1473 1473 1473 1473 1473 1474 1474 1474 1474 1473 1473 1473 1474 1474 1473 1473 1473 1472 1472 1472 1471 1471 1471 1470 1470 1470 1470 1470 1470 1470 1470 1470 1469 1469 1469 1468 1468 1467 1467 1467 1466 1466 1466
1469 1469 1469 1469 1470 1470 1470 1470 1470 1470 1470 1470 1470 1470 1470 1469 1469 1469 1468 1468 1467 1466 1466 1466 1466 1466 1466 1466 1466 1466 1465 1465 1465 1465 1464 1464 1464 1463 1463 1462 1462 1462 1461
1465 1465 1465 1465 1465 1466 1466 1466 1466 1466 1466 1466 1466 1466 1466 1465 1464 1464 1463 1463 1463 1462 1462 1462 1462 1462 1462 1461 1461 1461 1461 1461 1461 1460 1460 1460 1459 1459 1458 1458 1458 1457 1456
1460 1461 1461 1461 1461 1461 1462 1462 1462 1462 1462 1463 1463 1463 1463 1462 1461 1460 1459 1459 1458 1458 1458 1458 1457 1457 1457 1457 1457 1457 1456 1456 1456 1456 1455 1455 1455 1454 1454 1453 1453 1452 1452
1456 1456 1456 1456 1456 1457 1457 1458 1458 1458 1458 1458 1458 1459 1458 1458 1457 1456 1456 1455 1454 1454 1454 1453 1453 1453 1453 1453 1453 1452 1452 1452 1452 1452 1451 1451 1450 1450 1449 1449 1448 1447 1447
1452 1452 1451 1452 1452 1453 1453 1453 1454 1454 1454 1454 1454 1454 1454 1453 1453 1452 1451 1450 1450 1449 1449 1449 1448 1448 1448 1448 1448 1448 1448 1447 1447 1447 1447 1446 1446 1445 1444 1443 1443 1442 1442
1447 1447 1447 1447 1447 1448 1448 1448 1449 1449 1449 1449 1449 1449 1449 1449 1448 1448 1447 1446 1445 1445 1445 1444 1444 1444 1444 1443 1443 1443 1443 1443 1443 1442 1442 1441 1441 1440 1439 1438 1438 1437 1436
1443 1443 1443 1443 1443 1443 1443 1444 1444 1444 1444 1444 1444 1445 1445 1444 1444 1443 1443 1442 1441 1440 1440 1440 1439 1439 1439 1439 1438 1438 1438 1438 1438 1438 1437 1436 1436 1435 1434 1433 1432 1432 1431
1439 1439 1438 1438 1438 1439 1439 1439 1439 1439 1439 1439 1440 1440 1440 1440 1439 1439 1438 1438 1437 1436 1436 1435 1435 1434 1434 1434 1434 1433 1433 1433 1432 1432 1432 1431 1431 1430 1429 1429 1428 1427 1427